Helicity
72 106 128 129 118 122 85 95 78 48 157 121 229 267 241 50 -28 33 78 129 156 146 134 88 -12 -79 -60 -35 -28 -74 -67 -19 -2 90 147 171 145 85 201 348 316 331 386 369
77 85 157 186 155 159 161 99 90 90 81 139 237 294 189 114 95 54 11 9 53 191 190 222 219 82 -56 -120 -78 -32 63 34 -108 -97 122 107 108 32 84 139 254 359 348 359
1 54 173 211 257 183 145 147 114 98 109 122 257 352 216 87 45 47 103 104 95 87 130 124 151 185 145 132 -14 -176 -51 128 123 -14 -164 50 -1 -18 -34 112 169 305 342 379
59 122 186 191 155 123 53 72 78 113 185 303 135 327 117 104 99 60 65 70 49 11 17 -1 32 16 -12 4 59 44 -36 -8 86 180 66 -90 -50 -138 -167 -121 190 229 220 307
72 148 132 144 66 57 38 50 83 89 163 227 195 184 53 12 60 139 105 25 20 -5 -33 -25 -7 -4 -25 -1 -3 67 152 123 45 237 209 219 -13 -113 -246 -178 -216 359 154 217
102 65 135 46 7 -1 6 33 30 56 69 309 119 42 1 -10 21 41 44 30 29 -22 14 56 24 -12 12 19 40 113 215 248 167 224 343 247 305 23 14 -207 -205 -38 23 142
84 125 43 39 69 52 35 35 128 243 188 191 23 69 7 -11 -24 -40 -28 -6 25 -27 -67 11 15 -35 -42 10 22 61 220 355 367 279 364 368 360 235 150 70 38 -158 -86 149
111 124 92 0 10 48 -4 -8 18 181 189 95 94 55 -16 -38 -50 -50 -6 -30 -29 -69 -90 -87 -82 -75 -102 -83 -11 58 158 390 431 412 461 463 434 275 171 171 6 22 27 -161
92 42 9 -7 21 14 -8 14 37 26 53 93 52 30 -15 -41 -32 -14 -22 -21 -48 -58 126 100 96 95 74 -126 -94 10 99 302 570 572 532 508 447 449 333 214 103 73 28 -68
43 48 8 -1 10 -54 1 31 65 48 52 73 24 26 -7 -12 67 74 26 10 42 35 -17 142 145 160 129 40 19 -32 2 115 341 683 506 543 509 545 484 300 336 157 -101 59
44 40 -16 11 1 27 -30 -41 -15 26 37 58 47 7 -7 6 -8 35 67 42 16 -11 25 11 120 158 133 114 131 35 -101 -6 119 419 480 553 585 670 633 524 512 366 153 98
34 56 52 22 -3 42 33 3 44 47 -34 45 43 19 -46 -12 -16 2 17 20 -14 9 41 54 100 110 111 105 120 132 -57 -92 -56 86 257 506 595 607 672 652 633 661 424 306
57 62 46 30 21 29 14 17 13 32 -7 -24 9 -24 -12 -3 -20 6 45 38 -5 9 32 55 66 70 78 71 99 139 96 -50 -61 -71 53 190 404 730 738 615 568 628 555 388
40 77 144 129 98 50 27 27 37 46 40 13 27 25 19 -1 -6 19 20 12 3 14 20 31 50 36 32 49 74 88 122 24 0 -16 -30 -30 91 174 249 465 505 461 484 610
31 79 75 52 51 59 63 47 41 53 34 41 27 59 58 47 17 12 17 0 3 12 10 10 -4 0 -4 1 19 43 49 102 5 -40 -5 0 -13 5 14 81 218 406 349 298
-7 26 10 40 104 131 108 68 54 68 75 80 76 72 34 -10 -23 31 11 -8 5 5 -9 -1 9 -20 -50 -39 -29 -12 22 20 47 -63 -46 -46 -16 24 83 183 184 144 149 294
20 37 62 86 159 148 133 71 51 66 92 101 99 40 16 -4 39 11 -18 -21 -15 -6 12 -2 -15 -31 -44 -53 -74 -55 -57 7 12 10 -58 -63 -59 -35 -1 17 52 86 179 152
32 28 65 152 169 167 123 94 72 68 88 81 103 77 56 61 51 52 30 6 -13 4 10 -4 -2 -13 -8 -43 -71 -74 -67 -54 -38 -3 -76 -60 -54 -66 -33 -17 10 30 58 98
76 75 74 126 158 147 138 100 106 147 103 116 119 92 85 128 96 78 69 57 51 46 48 56 49 66 55 7 -46 -80 -88 -62 -63 -57 -44 -62 -59 -39 -41 -18 9 9 2 32
108 89 109 136 195 205 152 120 78 157 202 126 131 98 140 144 104 86 62 63 45 39 65 56 61 63 24 -14 -59 -86 -48 -65 -66 -36 -10 -35 -56 -61 -32 -12 5 0 -12 -10
177 118 160 166 197 130 127 89 71 224 153 102 124 141 186 149 131 108 89 78 66 60 52 38 57 41 20 7 -33 -35 -35 -52 -27 -14 -8 -35 -35 -25 -27 -11 -17 1 17 8
169 139 141 154 175 117 82 89 133 85 62 93 178 196 205 153 129 116 93 88 77 52 55 55 37 21 15 7 -52 -15 -28 -39 -32 -10 -16 -16 -19 -6 1 2 4 -10 13 21
97 122 110 145 122 72 82 114 83 116 141 147 185 180 207 140 117 113 97 115 107 105 126 100 60 46 25 23 -14 -28 -51 -29 -26 -25 -37 -21 -1 0 -2 16 24 9 12 18
57 85 106 119 79 84 73 72 117 191 191 116 101 202 155 136 126 124 114 147 195 203 136 79 38 17 16 8 -3 -7 -10 -20 -38 -46 -21 -15 -13 -6 -3 5 17 26 20 23
85 117 152 150 63 84 93 169 216 190 165 195 202 146 150 206 148 174 213 225 205 163 95 45 14 8 2 -1 9 4 -1 -19 -29 -29 -33 -37 -35 -14 10 6 -8 6 15 19
111 136 185 159 89 149 129 172 171 215 248 210 137 179 229 166 164 187 201 181 140 102 65 57 54 38 26 20 17 15 14 -3 -27 -25 -33 -46 -52 -40 -31 8 51 2 1 23
Wind_Speed
57 59 64 66 59 64 71 74 75 70 68 69 56 64 71 74 77 84 85 87 87 87 86 85 86 86 87 88 91 92 93 90 87 85 82 81 78 94 89 83 77 72 72 74
59 52 59 60 63 66 67 72 74 57 75 64 51 60 65 74 77 80 83 85 88 92 93 93 93 91 91 93 95 98 99 95 89 84 87 82 82 87 95 87 83 79 78 76
54 51 63 58 61 71 70 72 80 83 74 64 41 57 70 72 72 75 78 79 82 86 89 90 92 94 95 95 95 96 100 102 98 94 93 92 86 83 88 100 90 85 84 86
49 56 54 57 66 71 73 74 77 71 67 59 58 63 66 74 74 77 79 80 83 85 88 90 93 94 94 96 97 95 93 99 96 96 99 102 106 104 93 101 92 98 89 101
57 49 53 59 61 64 68 76 75 68 59 47 53 51 63 63 74 80 78 78 81 84 87 92 96 95 95 99 99 94 92 90 91 95 94 101 111 111 111 109 106 88 108 99
47 43 55 55 57 58 77 80 57 44 41 52 49 47 57 63 66 73 76 79 81 86 88 90 95 97 99 100 99 95 90 85 83 85 89 94 101 108 104 97 93 107 119 111
49 53 48 68 65 60 75 75 66 56 56 53 47 46 47 54 59 65 72 76 75 80 87 91 97 100 104 104 99 94 88 84 80 78 78 83 89 98 95 94 91 94 83 111
55 53 58 64 60 67 67 60 57 58 57 51 42 43 42 48 53 58 61 68 74 82 87 86 85 97 89 91 98 95 90 84 81 73 73 74 76 78 81 90 83 79 87 98
53 48 46 56 61 66 61 60 42 40 41 43 39 33 37 41 55 57 62 67 75 73 67 84 89 86 96 101 96 96 92 84 79 72 67 66 63 66 66 73 73 69 75 79
42 46 52 48 58 63 64 46 44 39 48 43 35 35 33 51 52 56 63 70 60 47 75 46 58 60 76 101 101 102 84 87 77 70 59 57 55 53 55 59 61 62 68 79
43 48 48 47 60 70 67 58 44 36 35 34 34 32 30 36 55 54 53 56 59 67 77 83 68 48 48 53 63 104 74 75 71 68 58 58 50 49 44 44 50 54 55 65
41 46 50 45 41 42 50 58 52 49 42 34 28 31 33 41 52 59 65 68 69 70 67 73 66 64 71 64 49 54 96 86 66 65 63 59 56 51 41 37 36 41 41 50
41 50 55 48 38 35 45 45 48 41 40 38 34 33 43 43 54 60 61 65 69 69 69 71 64 68 73 78 76 60 46 75 79 64 61 66 65 58 50 38 34 34 35 43
38 41 43 47 34 30 35 39 41 38 37 36 34 41 50 58 63 60 60 64 69 69 70 75 71 68 71 71 74 78 65 43 59 60 59 54 45 57 51 37 33 29 36 41
34 37 33 24 19 27 29 33 38 39 30 31 38 38 46 60 58 51 55 66 72 74 72 78 78 72 74 76 77 72 77 59 40 60 56 67 65 60 49 43 38 40 41 39
35 35 32 31 30 27 23 25 30 33 28 25 31 44 50 54 47 56 62 67 73 77 72 76 78 76 75 79 82 77 73 74 60 50 64 62 60 66 54 51 47 42 45 40
36 36 35 41 38 31 27 17 22 27 25 30 35 33 54 53 57 60 64 67 72 76 78 77 79 77 76 79 82 84 84 68 74 61 75 69 71 66 59 55 55 53 51 46
30 32 35 36 36 36 27 25 24 22 26 24 25 29 31 48 53 58 63 66 72 74 77 74 76 75 75 78 81 81 85 82 84 86 72 73 71 67 68 63 60 57 54 53
21 26 33 34 32 26 24 22 20 20 19 20 23 26 30 39 30 46 42 45 54 55 60 65 71 70 74 82 82 82 85 82 85 82 76 69 71 70 67 62 62 60 56 56
28 27 29 32 33 35 29 25 25 25 20 20 15 19 26 37 50 43 39 43 52 57 58 64 65 67 77 81 81 85 81 83 86 83 77 72 73 68 67 66 65 64 60 59
26 23 20 25 27 25 23 25 28 30 24 24 22 22 27 34 34 33 47 50 53 59 59 64 63 69 74 74 78 81 79 82 80 78 78 73 73 69 65 63 63 64 63 60
23 24 26 30 29 31 24 23 25 20 19 22 23 24 27 28 33 37 40 42 55 64 65 65 67 71 74 79 83 78 77 78 75 76 78 75 72 70 68 66 62 60 62 60
20 20 24 23 24 20 16 15 15 18 20 24 22 22 26 30 32 35 40 43 47 59 66 69 72 75 79 76 77 78 76 76 75 75 73 73 73 72 70 68 66 63 62 62
17 18 17 21 18 13 10 10 16 20 23 23 20 25 28 34 36 37 38 44 53 58 66 72 76 77 75 76 77 76 75 74 73 73 72 72 71 70 68 66 65 64 65 64
15 20 13 11 8 15 19 21 23 21 24 29 28 26 33 40 46 47 47 50 54 59 65 70 75 76 77 78 75 75 74 75 75 74 74 73 71 70 70 66 65 65 64 65
9 7 10 7 6 11 16 16 20 22 26 27 26 31 40 43 43 45 49 50 53 57 59 64 67 72 74 73 73 74 74 74 75 76 76 75 73 72 70 70 69 64 63 65
Wind_Direction
327 319 316 320 323 321 317 317 317 321 327 325 327 327 329 332 334 331 329 327 327 327 324 323 322 320 315 312 309 303 297 296 294 291 287 283 276 258 251 246 240 235 233 232
327 323 326 327 326 326 324 321 320 325 326 325 323 330 337 339 337 334 331 331 329 327 329 329 327 325 321 314 308 303 298 292 292 288 284 282 276 268 260 252 243 236 232 229
327 329 329 334 333 328 327 324 322 319 324 324 322 322 334 340 343 343 343 340 339 337 334 334 332 329 327 323 317 305 297 293 287 288 282 278 275 271 266 259 248 238 233 231
333 334 338 339 333 334 326 330 325 323 324 318 329 313 334 339 342 345 344 343 343 342 341 339 336 334 332 330 324 317 308 294 289 287 282 273 268 265 269 262 261 248 238 233
338 345 344 343 342 343 335 333 327 324 325 327 330 325 332 344 346 345 346 346 345 346 347 346 346 344 341 337 330 321 313 304 295 289 283 276 266 265 266 267 269 267 250 230
359 3 360 351 346 351 343 338 344 355 346 329 339 331 336 346 347 344 345 346 348 349 350 349 348 348 347 344 338 332 323 312 304 295 285 278 271 264 264 266 268 263 261 238
348 354 355 356 349 356 353 346 335 329 331 328 345 345 349 350 349 348 346 347 341 346 349 350 349 347 349 348 343 337 329 324 312 304 295 285 275 265 260 258 266 269 274 251
352 347 360 3 6 353 357 359 343 329 331 331 352 342 356 354 356 346 4 346 349 357 354 348 343 351 341 341 346 342 336 328 326 309 303 295 283 273 266 259 264 276 269 259
357 1 13 11 9 7 359 356 5 351 359 347 351 359 355 350 333 333 335 338 345 341 30 20 20 20 19 354 348 349 343 334 330 320 309 302 298 281 271 266 262 274 274 278
26 12 15 16 16 17 15 16 5 2 341 342 356 5 8 332 317 318 326 336 326 321 345 35 33 33 26 16 14 6 346 346 336 330 322 314 309 302 283 271 270 275 278 280
32 24 17 25 21 17 22 25 25 20 13 359 357 9 22 17 330 310 310 315 322 333 9 2 27 34 32 33 32 16 345 344 342 337 333 336 329 322 308 285 279 274 283 287
42 31 23 28 41 45 41 32 37 29 25 22 29 21 21 5 348 328 334 344 346 3 18 15 26 30 30 33 30 31 1 355 344 343 342 337 339 334 321 305 293 284 289 298
51 35 26 28 42 42 38 42 37 37 29 27 22 15 6 7 344 341 354 357 354 2 13 15 23 25 26 26 29 34 25 350 351 346 347 350 346 339 329 314 305 306 299 304
65 55 46 29 32 49 44 41 42 45 33 20 13 352 348 333 327 340 350 354 354 357 5 6 12 18 21 25 25 26 33 5 344 346 349 348 346 352 346 329 317 319 318 309
67 53 57 56 69 72 57 48 41 41 46 31 5 357 355 343 344 357 355 349 347 348 354 356 359 7 10 14 18 24 25 32 355 340 343 351 352 351 349 348 348 336 330 316
75 59 56 52 74 80 65 60 51 43 46 35 9 347 346 347 359 351 347 348 346 343 349 352 354 358 2 3 6 12 19 22 32 337 341 342 347 351 349 354 351 332 332 330
68 64 55 56 64 69 52 72 58 51 50 36 22 5 335 344 346 345 345 347 345 344 344 346 348 350 355 358 358 1 1 15 17 30 349 345 352 351 349 347 347 341 339 333
81 65 63 59 61 48 64 78 69 56 46 46 43 40 29 359 350 347 345 345 345 346 347 350 352 354 356 356 355 356 355 357 351 354 334 342 345 347 348 346 345 343 342 342
109 80 61 58 51 50 64 72 61 52 39 45 41 33 24 16 18 9 14 14 7 10 7 2 359 2 359 357 357 357 354 355 343 333 333 335 342 341 342 341 341 340 338 340
98 85 66 53 49 46 61 70 63 58 27 57 51 32 28 20 6 10 17 12 8 6 8 4 6 7 359 357 360 359 359 353 350 345 337 335 338 332 336 340 340 340 336 338
87 77 60 54 51 49 69 67 59 44 36 43 50 44 31 18 16 17 8 6 6 3 5 2 6 2 -0 4 4 355 355 353 352 351 347 340 336 332 331 332 335 338 338 338
82 66 59 60 51 46 79 64 50 58 58 44 42 36 26 24 21 14 11 11 2 357 358 0 359 357 358 355 347 351 351 345 343 345 346 343 339 336 333 329 325 330 335 331
74 89 65 77 65 64 67 64 70 61 57 46 44 33 27 22 18 14 12 8 6 359 353 353 352 350 349 352 352 344 343 345 345 342 340 342 342 339 337 333 329 325 326 328
97 97 81 64 77 66 64 61 60 67 52 45 41 35 33 20 16 12 10 9 5 2 355 349 347 349 352 351 348 347 347 345 344 343 344 340 336 335 336 335 333 332 332 326
82 69 79 62 63 45 48 63 64 60 49 41 47 45 28 18 14 15 15 11 5 359 355 352 346 345 345 345 348 347 347 344 345 344 340 340 337 334 334 334 332 331 329 327
91 98 58 23 43 46 47 73 62 55 48 51 48 37 29 24 22 19 13 10 6 3 1 358 356 351 348 350 353 352 349 347 343 341 339 335 332 332 334 333 330 328 326 324